This demonstration page uses our WeatherBlox Daily Observations layout. Learn more.

Hourly Observations for April 12, 2016

Temp ( °F °C ) Dew Point ( °F °C ) Humidity (%) Winds ( mph kmh ) Pressure ( in mb ) Visibility ( mi km ) Precip ( " mm )
12:15 am 00:15 Cloudy 42 5.8 22 -5.8 43 43 SE 9 15 30.24 1024 10 16.0934 0 0
12:35 am 00:35 Cloudy 44 6.5 21 -6.2 40 40 SE 9 15 30.24 1024 10 16.0934 0 0
12:55 am 00:55 Cloudy 44 6.5 19 -7.2 37 37 SE 10 17 30.24 1024 10 16.0934 0 0
1:15 am 01:15 Partly Cloudy 42 5.8 19 -7.1 39 39 SSE 10 17 30.24 1024 10 16.0934 0 0
1:35 am 01:35 Clear 42 5.5 19 -7 40 40 S 13 20 30.24 1024 10 16.0934 0 0
1:55 am 01:55 Clear 41 5.1 19 -7.1 41 41 S 9 15 30.24 1024 10 16.0934 0 0
2:15 am 02:15 Clear 41 5 19 -7 42 42 S 13 20 30.24 1024 10 16.0934 0 0
2:35 am 02:35 Clear 40 4.6 20 -6.6 44 44 S 10 17 30.24 1024 10 16.0934 0 0
2:55 am 02:55 Clear 39 4 21 -6.1 48 48 S 12 19 30.27 1025 10 16.0934 0 0
3:15 am 03:15 Clear 39 4.1 21 -6 48 48 S 10 17 30.27 1025 10 16.0934 0 0
3:35 am 03:35 Clear 39 3.7 22 -5.8 50 50 S 10 17 30.24 1024 10 16.0934 0 0
3:55 am 03:55 Clear 38 3.6 22 -5.8 51 51 S 7 11 30.24 1024 10 16.0934 0 0
4:15 am 04:15 Clear 38 3.5 22 -5.8 51 51 S 7 11 30.24 1024 10 16.0934 0 0
4:35 am 04:35 Clear 37 3 22 -5.8 53 53 S 7 11 30.27 1025 10 16.0934 0 0
4:55 am 04:55 Clear 36 2.3 22 -5.8 55 55 S 8 13 30.27 1025 10 16.0934 0 0
5:15 am 05:15 Clear 35 1.7 22 -5.7 58 58 S 7 11 30.27 1025 10 16.0934 0 0
5:35 am 05:35 Clear 35 1.5 22 -5.8 59 59 S 6 9 30.27 1025 10 16.0934 0 0
5:55 am 05:55 Clear 34 1.3 22 -5.4 61 61 S 7 11 30.27 1025 10 16.0934 0 0
6:15 am 06:15 Clear 34 1 22 -5.4 63 63 SSE 6 9 30.3 1026 10 16.0934 0 0
6:35 am 06:35 Clear 31 -0.5 22 -5.8 68 68 SSE 5 7 30.3 1026 10 16.0934 0 0
6:55 am 06:55 Clear 30 -1.3 22 -5.7 72 72 SSE 7 11 30.3 1026 10 16.0934 0 0
7:15 am 07:15 Sunny 31 -0.3 23 -4.8 72 72 SSE 7 11 30.3 1026 10 16.0934 0 0
7:35 am 07:35 Sunny 32 0 23 -5 69 69 S 5 7 30.3 1026 10 16.0934 0 0
7:55 am 07:55 Sunny 33 0.8 24 -4.4 69 69 S 6 9 30.3 1026 10 16.0934 0 0
8:15 am 08:15 Sunny 37 2.6 26 -3.3 65 65 S 7 11 30.27 1025 10 16.0934 0 0
8:35 am 08:35 Sunny 40 4.5 30 -1.3 66 66 S 8 13 30.24 1024 10 16.0934 0 0
8:55 am 08:55 Sunny 44 6.6 32 0.2 64 64 S 8 13 30.24 1024 10 16.0934 0 0
9:15 am 09:15 Sunny 48 8.7 36 2.4 65 65 SW 12 19 30.21 1023 10 16.0934 0 0
9:35 am 09:35 Sunny 50 10.1 37 3 62 62 SSW 12 19 30.21 1023 10 16.0934 0 0
9:55 am 09:55 Sunny 53 11.4 37 3 57 57 SSW 13 20 30.15 1021 10 16.0934 0 0
10:15 am 10:15 Sunny 54 12.3 34 1.1 47 47 SSW 16 26 30.15 1021 10 16.0934 0 0
10:35 am 10:35 Sunny 56 13.1 33 0.6 43 43 SSW 18 30 30.15 1021 10 16.0934 0 0
10:55 am 10:55 Sunny 57 13.7 32 -0.1 39 39 SW 15 24 30.15 1021 10 16.0934 0 0
11:15 am 11:15 Sunny 57 14.1 32 0 38 38 SSW 16 26 30.12 1020 10 16.0934 0 0
11:35 am 11:35 Sunny 59 15.1 30 -1.2 33 33 SSW 22 35 30.12 1020 10 16.0934 0 0
11:55 am 11:55 Sunny 60 15.7 31 -0.5 33 33 SSW 20 31 30.12 1020 10 16.0934 0 0
12:15 pm 12:15 Sunny 61 15.9 31 -0.6 33 33 S 22 35 30.09 1019 10 16.0934 0 0
12:35 pm 12:35 Sunny 62 16.5 31 -0.6 31 31 SW 22 35 30.09 1019 10 16.0934 0 0
12:55 pm 12:55 Sunny 62 16.9 31 -0.5 31 31 SSW 23 37 30.09 1019 10 16.0934 0 0
1:15 pm 13:15 Sunny 63 17.3 31 -0.4 30 30 SSW 23 37 30.06 1018 10 16.0934 0 0
1:35 pm 13:35 Sunny 64 17.8 31 -0.4 29 29 S 20 31 30.06 1018 10 16.0934 0 0
1:55 pm 13:55 Sunny 65 18.6 31 -0.3 28 28 S 26 43 30.06 1018 10 16.0934 0 0
2:15 pm 14:15 Sunny 65 18.6 31 -0.4 28 28 SSW 20 31 30.03 1017 10 16.0934 0 0
2:35 pm 14:35 Sunny 66 18.9 30 -1.2 26 26 SSW 23 37 30.03 1017 10 16.0934 0 0
2:55 pm 14:55 Sunny 66 18.9 30 -1.1 26 26 SSW 22 35 30.03 1017 10 16.0934 0 0
3:15 pm 15:15 Sunny 66 19.1 30 -0.9 26 26 SSW 24 39 30 1016 10 16.0934 0 0
3:35 pm 15:35 Sunny 67 19.3 30 -1.3 25 25 SSW 20 31 30 1016 10 16.0934 0 0
3:55 pm 15:55 Sunny 67 19.6 30 -0.9 25 25 SSW 22 35 30 1016 10 16.0934 0 0
4:15 pm 16:15 Sunny 67 19.6 31 -0.8 25 25 S 22 35 30 1016 10 16.0934 0 0
4:35 pm 16:35 Sunny 68 20.1 30 -0.9 24 24 SSW 24 39 29.94 1014 10 16.0934 0 0
4:55 pm 16:55 Sunny 68 20 30 -1.1 24 24 S 22 35 29.94 1014 10 16.0934 0 0
5:15 pm 17:15 Sunny 68 20.1 30 -0.9 24 24 SSW 22 35 29.94 1014 10 16.0934 0 0
5:35 pm 17:35 Sunny 68 20 31 -0.6 25 25 S 22 35 29.94 1014 10 16.0934 0 0
5:55 pm 17:55 Sunny 67 19.7 31 -0.4 26 26 S 22 35 29.97 1015 10 16.0934 0 0
6:15 pm 18:15 Sunny 67 19.4 31 -0.4 27 27 SSW 20 31 29.97 1015 10 16.0934 0 0
6:35 pm 18:35 Sunny 67 19.3 31 -0.3 27 27 SSW 17 28 29.97 1015 10 16.0934 0 0
6:55 pm 18:55 Sunny 66 18.8 32 -0.2 28 28 S 21 33 29.97 1015 10 16.0934 0 0
7:15 pm 19:15 Sunny 65 18.5 32 -0.2 28 28 S 21 33 29.97 1015 10 16.0934 0 0
7:35 pm 19:35 Sunny 64 17.9 32 -0.2 30 30 S 17 28 29.97 1015 10 16.0934 0 0
7:55 pm 19:55 Sunny 63 17.2 31 -0.5 30 30 S 16 26 29.97 1015 10 16.0934 0 0
8:15 pm 20:15 Clear 62 16.5 31 -0.5 32 32 S 14 22 29.97 1015 10 16.0934 0 0
8:35 pm 20:35 Clear 60 15.5 31 -0.5 34 34 S 13 20 30 1016 10 16.0934 0 0
8:55 pm 20:55 Clear 58 14.5 31 -0.6 36 36 S 10 17 30.03 1017 10 16.0934 0 0
9:15 pm 21:15 Clear 57 13.7 31 -0.6 38 38 S 9 15 30.03 1017 10 16.0934 0 0
9:35 pm 21:35 Clear 55 13 30 -1 38 38 S 12 19 30.06 1018 10 16.0934 0 0
9:55 pm 21:55 Clear 55 12.5 30 -1 40 40 S 12 19 30.06 1018 10 16.0934 0 0
10:15 pm 22:15 Clear 54 12 30 -1.1 41 41 S 13 20 30.06 1018 10 16.0934 0 0
10:35 pm 22:35 Clear 53 11.5 30 -1.2 42 42 S 14 22 30.06 1018 10 16.0934 0 0
10:55 pm 22:55 Clear 53 11.5 30 -1.1 42 42 S 15 24 30.06 1018 10 16.0934 0 0
11:15 pm 23:15 Clear 53 11.5 30 -1.1 42 42 S 14 22 30.06 1018 10 16.0934 0 0
11:35 pm 23:35 Clear 52 11.1 30 -1.1 43 43 S 13 20 30.06 1018 10 16.0934 0 0
11:55 pm 23:55 Clear 51 10.8 30 -1.1 44 44 S 12 19 30.06 1018 10 16.0934 0 0

Powered by AerisWeather